Retour au catalogue

NUSAT-48

H. LEAVITT

ActifScienceSSO
NORAD 60498·PAYLOAD·🇦🇷 Argentina

Lancé Aug 16, 2024 depuis Vandenberg Space Force Base

Loading…

Prochains Passages (prochaines 24 heures)

TLE

FraisSource: Space-Track

Époque: Sep 13, 2026, 23:14 UTC

1 60498U 24149AG  26256.96854275  .00007329  00000-0  25366-3 0  9990
2 60498  97.3868 338.0011 0002086 344.0369  16.0806 15.30167156115712

Suivez NUSAT-48 en temps réel avec AllMySat

Download on the App Store